Farmville, VA

1:30 PM EDT on September 19, 2017 (GMT -0400)
Farmville Regional

Weather History for KFVX - November, 2013

Change the Weather History Date:

Friday, November 22, 2013

  Actual Average Record
Temperature  
Mean Temperature 60 °F -  
Max Temperature 73 °F 55 °F 79 °F (1931)
Min Temperature 46 °F 31 °F 13 °F (1964)
Degree Days  
Heating Degree Days 6    
Growing Degree Days 10 (Base 50)    
Moisture  
Dew Point 47 °F    
Average Humidity 66    
Maximum Humidity 87    
Minimum Humidity 47    
Precipitation  
Precipitation 0.00 in - - ()
Sea Level Pressure  
Sea Level Pressure 30.19 in    
Wind  
Wind Speed 4 mph (SW)    
Max Wind Speed 18 mph    
Max Gust Speed 24 mph    
Visibility 10 miles    
Events Rain    
Averages and records for this station are not official NWS values.
T = Trace of Precipitation, MM = Missing Value Source: NWS Daily Summary

Daily Weather History Graph

Daily Weather History Graph

Search for Another Location

Airport or City:

Trip Planner

Search our weather history database for the weather conditions in past years. The results will help you decide how hot, cold, wet, or windy it might be!

Date:

Astronomy

Nov. 22, 2013 Rise Set
Actual Time 7:00 AM EST 4:59 PM EST
Civil Twilight 6:32 AM EST 5:27 PM EST
Nautical Twilight 6:00 AM EST 5:59 PM EST
Astronomical Twilight 5:29 AM EST 6:30 PM EST
Moon 9:27 PM EST (11/22) 10:44 AM EST (11/22)
Length of Visible Light 10h 54m
Length of Day
9h 58m
Waning Gibbous, 78% of the Moon is Illuminated
Nov 22
Waning Gibbous
Nov 25
Last Quarter
Dec 2
New
Dec 9
First Quarter
Dec 17
Full

Hourly Weather History & Observations

Time (EST) Temp. Dew Point Humidity Pressure Visibility Wind Dir Wind Speed Gust Speed Precip Events Conditions
12:15 AM 48.2 °F 39.2 °F 71% 30.38 in 10.0 mi Calm Calm - N/A   Overcast
12:35 AM 48.2 °F 39.2 °F 71% 30.38 in 10.0 mi Calm Calm - N/A   Overcast
12:55 AM 48.2 °F 39.2 °F 71% 30.38 in 10.0 mi Calm Calm - N/A   Overcast
1:15 AM 48.2 °F 39.2 °F 71% 30.37 in 10.0 mi Calm Calm - N/A   Overcast
1:35 AM 48.2 °F 39.2 °F 71% 30.37 in 10.0 mi Calm Calm - N/A   Overcast
1:55 AM 48.2 °F 39.2 °F 71% 30.37 in 10.0 mi Calm Calm - N/A   Overcast
2:15 AM 48.2 °F 39.2 °F 71% 30.35 in 10.0 mi Calm Calm - N/A   Overcast
2:35 AM 48.2 °F 39.2 °F 71% 30.36 in 10.0 mi Calm Calm - N/A   Overcast
2:55 AM 48.2 °F 39.2 °F 71% 30.35 in 10.0 mi Calm Calm - N/A   Overcast
3:15 AM 48.2 °F 39.2 °F 71% 30.33 in 10.0 mi Calm Calm - N/A   Overcast
3:35 AM 48.2 °F 39.2 °F 71% 30.33 in 10.0 mi Calm Calm - N/A   Mostly Cloudy
3:55 AM 46.4 °F 39.2 °F 76% 30.32 in 10.0 mi Calm Calm - N/A   Mostly Cloudy
4:15 AM 46.4 °F 39.2 °F 76% 30.31 in 10.0 mi Calm Calm - N/A   Scattered Clouds
4:35 AM 46.4 °F 39.2 °F 76% 30.31 in 10.0 mi Calm Calm - N/A   Mostly Cloudy
4:55 AM 46.4 °F 41.0 °F 81% 30.30 in 10.0 mi Calm Calm - N/A   Mostly Cloudy
5:15 AM 46.4 °F 42.8 °F 87% 30.29 in 10.0 mi Calm Calm - N/A   Mostly Cloudy
5:35 AM 48.2 °F 41.0 °F 76% 30.30 in 10.0 mi Calm Calm - N/A   Overcast
5:55 AM 48.2 °F 39.2 °F 71% 30.30 in 10.0 mi Calm Calm - N/A   Overcast
6:15 AM 48.2 °F 41.0 °F 76% 30.30 in 10.0 mi Calm Calm - N/A   Overcast
6:35 AM 48.2 °F 39.2 °F 71% 30.30 in 10.0 mi Calm Calm - N/A   Overcast
6:55 AM 48.2 °F 39.2 °F 71% 30.29 in 10.0 mi Calm Calm - N/A   Overcast
7:15 AM 48.2 °F 41.0 °F 76% 30.29 in 10.0 mi Calm Calm - N/A   Overcast
7:35 AM 48.2 °F 41.0 °F 76% 30.29 in 10.0 mi Calm Calm - N/A   Overcast
7:55 AM 50.0 °F 41.0 °F 71% 30.29 in 10.0 mi SSW 3.5 mph - N/A   Overcast
8:15 AM 51.8 °F 41.0 °F 67% 30.28 in 10.0 mi South 4.6 mph - N/A   Overcast
8:35 AM 51.8 °F 41.0 °F 67% 30.27 in 10.0 mi SSW 4.6 mph - N/A   Mostly Cloudy
8:55 AM 53.6 °F 41.0 °F 62% 30.27 in 10.0 mi SSW 5.8 mph - N/A   Clear
9:15 AM 55.4 °F 42.8 °F 63% 30.27 in 10.0 mi SW 6.9 mph - N/A   Clear
9:35 AM 59.0 °F 44.6 °F 59% 30.25 in 10.0 mi SSW 6.9 mph - N/A   Clear
9:55 AM 62.6 °F 48.2 °F 59% 30.25 in 10.0 mi SSW 10.4 mph 16.1 mph N/A   Clear
10:15 AM 62.6 °F 48.2 °F 59% 30.24 in 10.0 mi SW 11.5 mph - N/A   Clear
10:35 AM 64.4 °F 50.0 °F 59% 30.24 in 10.0 mi SSW 8.1 mph - N/A   Clear
10:55 AM 66.2 °F 50.0 °F 56% 30.22 in 10.0 mi SW 5.8 mph - N/A   Clear
11:15 AM 66.2 °F 50.0 °F 56% 30.20 in 10.0 mi SSW 18.4 mph 24.2 mph N/A   Scattered Clouds
11:35 AM 68.0 °F 50.0 °F 52% 30.19 in 10.0 mi South 10.4 mph 24.2 mph N/A   Clear
11:55 AM 68.0 °F 50.0 °F 52% 30.19 in 10.0 mi SSW 10.4 mph 19.6 mph N/A   Scattered Clouds
12:15 PM 69.8 °F 51.8 °F 53% 30.18 in 10.0 mi SW 16.1 mph 23.0 mph N/A   Mostly Cloudy
12:35 PM 68.0 °F 51.8 °F 56% 30.16 in 10.0 mi SW 10.4 mph 18.4 mph N/A   Overcast
12:55 PM 69.8 °F 51.8 °F 53% 30.15 in 10.0 mi SW 8.1 mph 17.3 mph N/A   Overcast
1:15 PM 69.8 °F 51.8 °F 53% 30.14 in 10.0 mi SW 15.0 mph 20.7 mph N/A   Mostly Cloudy
1:35 PM 69.8 °F 51.8 °F 53% 30.12 in 10.0 mi SW 10.4 mph 18.4 mph N/A   Scattered Clouds
1:55 PM 71.6 °F 51.8 °F 50% 30.11 in 10.0 mi SW 15.0 mph 20.7 mph N/A   Mostly Cloudy
2:15 PM 73.4 °F 51.8 °F 47% 30.11 in 10.0 mi SSW 13.8 mph 19.6 mph N/A   Scattered Clouds
2:35 PM 73.4 °F 51.8 °F 47% 30.10 in 10.0 mi SSW 15.0 mph 23.0 mph N/A   Clear
2:55 PM 71.6 °F 51.8 °F 50% 30.09 in 10.0 mi SSW 15.0 mph 21.9 mph N/A   Clear
3:15 PM 71.6 °F 51.8 °F 50% 30.09 in 10.0 mi SW 11.5 mph 19.6 mph N/A   Clear
3:35 PM 69.8 °F 51.8 °F 53% 30.09 in 10.0 mi SW 15.0 mph 20.7 mph N/A   Mostly Cloudy
3:55 PM 69.8 °F 51.8 °F 53% 30.09 in 10.0 mi SW 13.8 mph 21.9 mph N/A   Overcast
4:15 PM 69.8 °F 51.8 °F 53% 30.08 in 10.0 mi SW 12.7 mph 19.6 mph N/A   Overcast
4:35 PM 68.0 °F 51.8 °F 56% 30.08 in 10.0 mi SW 13.8 mph 21.9 mph N/A   Overcast
4:55 PM 66.2 °F 51.8 °F 60% 30.07 in 10.0 mi SW 10.4 mph 16.1 mph N/A   Overcast
5:15 PM 66.2 °F 51.8 °F 60% 30.06 in 10.0 mi SW 11.5 mph 18.4 mph N/A   Overcast
5:35 PM 66.2 °F 51.8 °F 60% 30.06 in 10.0 mi SW 11.5 mph - N/A   Overcast
5:55 PM 66.2 °F 51.8 °F 60% 30.07 in 10.0 mi SW 8.1 mph 17.3 mph N/A   Overcast
6:15 PM 66.2 °F 51.8 °F 60% 30.06 in 10.0 mi SW 6.9 mph 17.3 mph N/A   Overcast
6:35 PM 66.2 °F 51.8 °F 60% 30.06 in 10.0 mi SW 11.5 mph - N/A   Overcast
6:55 PM 66.2 °F 51.8 °F 60% 30.05 in 10.0 mi SW 9.2 mph - N/A   Overcast
7:15 PM 64.4 °F 51.8 °F 64% 30.05 in 10.0 mi SW 9.2 mph - N/A   Overcast
7:35 PM 64.4 °F 51.8 °F 64% 30.05 in 10.0 mi SW 9.2 mph - N/A   Overcast
7:55 PM 64.4 °F 51.8 °F 64% 30.04 in 10.0 mi SW 8.1 mph - N/A   Overcast
8:15 PM 64.4 °F 53.6 °F 68% 30.04 in 10.0 mi SSW 5.8 mph - N/A Rain Light Rain
8:35 PM 64.4 °F 53.6 °F 68% 30.05 in 10.0 mi SW 9.2 mph - N/A Rain Light Rain
8:55 PM 62.6 °F 55.4 °F 77% 30.04 in 10.0 mi SSW 6.9 mph - N/A   Light Drizzle
9:15 PM 62.6 °F 55.4 °F 77% 30.04 in 10.0 mi SSW 8.1 mph - N/A   Light Drizzle
9:35 PM 62.6 °F 57.2 °F 82% 30.03 in 10.0 mi SSW 8.1 mph - N/A   Light Drizzle
9:55 PM 62.6 °F 55.4 °F 77% 30.04 in 10.0 mi SW 5.8 mph - N/A   Overcast
10:15 PM 62.6 °F 55.4 °F 77% 30.04 in 10.0 mi SW 4.6 mph - N/A   Overcast
10:35 PM 62.6 °F 55.4 °F 77% 30.03 in 10.0 mi SW 5.8 mph - N/A   Overcast
10:55 PM 62.6 °F 55.4 °F 77% 30.03 in 10.0 mi SW 5.8 mph - N/A   Overcast
11:15 PM 62.6 °F 55.4 °F 77% 30.03 in 10.0 mi SW 5.8 mph - N/A   Overcast
11:35 PM 62.6 °F 55.4 °F 77% 30.03 in 10.0 mi SW 5.8 mph - N/A   Overcast
11:55 PM 62.6 °F 55.4 °F 77% 30.03 in 10.0 mi SW 4.6 mph - N/A   Mostly Cloudy